Data supplied by UK-AIR on 14/5/2021
All Data GMT hour ending 
Status: R =Ratified P=Provisional,P*=As supplied
,,Bristol Temple Way,,,,,,,,,,,,,,,,,,,,,,,
Date,time,"PM<sub>10</sub> particulate matter (Hourly measured)",status,unit,"Nitric oxide",status,unit,"Nitrogen dioxide",status,unit,"Nitrogen oxides as nitrogen dioxide",status,unit
 
01-01-2020,01:00,40.580,R,ugm-3 (Ref.eq),7.09787,R,ugm-3,33.91909,R,ugm-3,44.80234,R,ugm-3
01-01-2020,02:00,34.783,R,ugm-3 (Ref.eq),6.91431,R,ugm-3,30.34461,R,ugm-3,40.94640,R,ugm-3
01-01-2020,03:00,26.087,R,ugm-3 (Ref.eq),8.44402,R,ugm-3,27.35643,R,ugm-3,40.30375,R,ugm-3
01-01-2020,04:00,29.952,R,ugm-3 (Ref.eq),13.00257,R,ugm-3,28.17044,R,ugm-3,48.10743,R,ugm-3
01-01-2020,05:00,34.783,R,ugm-3 (Ref.eq),33.56192,R,ugm-3,45.48843,R,ugm-3,96.94933,R,ugm-3
01-01-2020,06:00,26.087,R,ugm-3 (Ref.eq),9.88195,R,ugm-3,21.47931,R,ugm-3,36.63142,R,ugm-3
01-01-2020,07:00,20.290,R,ugm-3 (Ref.eq),7.89332,R,ugm-3,37.65705,R,ugm-3,49.75998,R,ugm-3
01-01-2020,08:00,21.256,R,ugm-3 (Ref.eq),9.97374,R,ugm-3,29.14226,R,ugm-3,44.43511,R,ugm-3
01-01-2020,09:00,14.493,R,ugm-3 (Ref.eq),5.84351,R,ugm-3,35.42929,R,ugm-3,44.38921,R,ugm-3
01-01-2020,10:00,19.324,R,ugm-3 (Ref.eq),19.70272,R,ugm-3,37.49805,R,ugm-3,67.70846,R,ugm-3
01-01-2020,11:00,15.459,R,ugm-3 (Ref.eq),3.02883,R,ugm-3,20.60307,R,ugm-3,25.24722,R,ugm-3
01-01-2020,12:00,19.324,R,ugm-3 (Ref.eq),17.31636,R,ugm-3,34.08785,R,ugm-3,60.63923,R,ugm-3
01-01-2020,13:00,23.189,R,ugm-3 (Ref.eq),7.00609,R,ugm-3,28.23001,R,ugm-3,38.97253,R,ugm-3
01-01-2020,14:00,22.223,R,ugm-3 (Ref.eq),3.73250,R,ugm-3,22.23247,R,ugm-3,27.95556,R,ugm-3
01-01-2020,15:00,23.189,R,ugm-3 (Ref.eq),4.95627,R,ugm-3,29.21553,R,ugm-3,36.81504,R,ugm-3
01-01-2020,16:00,16.425,R,ugm-3 (Ref.eq),2.75349,R,ugm-3,29.24209,R,ugm-3,33.46404,R,ugm-3
01-01-2020,17:00,25.121,R,ugm-3 (Ref.eq),23.67997,R,ugm-3,52.24011,R,ugm-3,88.54889,R,ugm-3
01-01-2020,18:00,18.358,R,ugm-3 (Ref.eq),15.63368,R,ugm-3,46.21597,R,ugm-3,70.18728,R,ugm-3
01-01-2020,19:00,9.662,R,ugm-3 (Ref.eq),10.27968,R,ugm-3,42.53618,R,ugm-3,58.29813,R,ugm-3
01-01-2020,20:00,15.459,R,ugm-3 (Ref.eq),5.38459,R,ugm-3,38.51996,R,ugm-3,46.77622,R,ugm-3
01-01-2020,21:00,13.527,R,ugm-3 (Ref.eq),6.97550,R,ugm-3,36.67736,R,ugm-3,47.37297,R,ugm-3
01-01-2020,22:00,16.425,R,ugm-3 (Ref.eq),42.28129,R,ugm-3,54.93323,R,ugm-3,119.76364,R,ugm-3
01-01-2020,23:00,16.425,R,ugm-3 (Ref.eq),6.94490,R,ugm-3,23.45800,R,ugm-3,34.10670,R,ugm-3
01-01-2020,24:00,13.527,R,ugm-3 (Ref.eq),3.88547,R,ugm-3,16.85666,R,ugm-3,22.81431,R,ugm-3
02-01-2020,01:00,10.628,R,ugm-3 (Ref.eq),0.89770,R,ugm-3,15.63969,R,ugm-3,17.01615,R,ugm-3
02-01-2020,02:00,9.662,R,ugm-3 (Ref.eq),0.97931,R,ugm-3,10.18936,R,ugm-3,11.69095,R,ugm-3
02-01-2020,03:00,7.730,R,ugm-3 (Ref.eq),0.70388,R,ugm-3,10.44336,R,ugm-3,11.52262,R,ugm-3
02-01-2020,04:00,13.527,R,ugm-3 (Ref.eq),1.10173,R,ugm-3,9.09883,R,ugm-3,10.78811,R,ugm-3
02-01-2020,05:00,11.594,R,ugm-3 (Ref.eq),1.71379,R,ugm-3,16.42357,R,ugm-3,19.05135,R,ugm-3
02-01-2020,06:00,16.425,R,ugm-3 (Ref.eq),9.91552,R,ugm-3,21.61372,R,ugm-3,36.81731,R,ugm-3
02-01-2020,07:00,13.527,R,ugm-3 (Ref.eq),33.87803,R,ugm-3,41.84215,R,ugm-3,93.78773,R,ugm-3
02-01-2020,08:00,10.628,R,ugm-3 (Ref.eq),18.02544,R,ugm-3,37.77867,R,ugm-3,65.41729,R,ugm-3
02-01-2020,09:00,12.561,R,ugm-3 (Ref.eq),8.29354,R,ugm-3,28.50779,R,ugm-3,41.22437,R,ugm-3
02-01-2020,10:00,17.392,R,ugm-3 (Ref.eq),2.96854,R,ugm-3,18.03449,R,ugm-3,22.58618,R,ugm-3
02-01-2020,11:00,16.425,R,ugm-3 (Ref.eq),5.08017,R,ugm-3,22.83039,R,ugm-3,30.61988,R,ugm-3
02-01-2020,12:00,17.392,R,ugm-3 (Ref.eq),6.54914,R,ugm-3,25.35232,R,ugm-3,35.39420,R,ugm-3
02-01-2020,13:00,17.392,R,ugm-3 (Ref.eq),3.70302,R,ugm-3,20.12178,R,ugm-3,25.79966,R,ugm-3
02-01-2020,14:00,17.392,R,ugm-3 (Ref.eq),8.41595,R,ugm-3,23.63759,R,ugm-3,36.54187,R,ugm-3
02-01-2020,15:00,21.256,R,ugm-3 (Ref.eq),5.81466,R,ugm-3,24.59633,R,ugm-3,33.51202,R,ugm-3
02-01-2020,16:00,23.189,R,ugm-3 (Ref.eq),8.14052,R,ugm-3,27.96200,R,ugm-3,40.44395,R,ugm-3
02-01-2020,17:00,20.290,R,ugm-3 (Ref.eq),10.46638,R,ugm-3,26.96651,R,ugm-3,43.01474,R,ugm-3
02-01-2020,18:00,23.189,R,ugm-3 (Ref.eq),9.67069,R,ugm-3,28.73743,R,ugm-3,43.56562,R,ugm-3
02-01-2020,19:00,18.358,R,ugm-3 (Ref.eq),8.32414,R,ugm-3,19.78446,R,ugm-3,32.54797,R,ugm-3
02-01-2020,20:00,13.527,R,ugm-3 (Ref.eq),6.73276,R,ugm-3,16.02712,R,ugm-3,26.35054,R,ugm-3
02-01-2020,21:00,19.324,R,ugm-3 (Ref.eq),5.01897,R,ugm-3,16.13002,R,ugm-3,23.82567,R,ugm-3
02-01-2020,22:00,11.594,R,ugm-3 (Ref.eq),3.30517,R,ugm-3,11.04545,R,ugm-3,16.11331,R,ugm-3
02-01-2020,23:00,10.628,R,ugm-3 (Ref.eq),1.98923,R,ugm-3,9.52838,R,ugm-3,12.57848,R,ugm-3
02-01-2020,24:00,6.763,R,ugm-3 (Ref.eq),1.13233,R,ugm-3,7.76651,R,ugm-3,9.50272,R,ugm-3
03-01-2020,01:00,2.899,R,ugm-3 (Ref.eq),1.63268,R,ugm-3,10.59617,R,ugm-3,13.09957,R,ugm-3
03-01-2020,02:00,4.831,R,ugm-3 (Ref.eq),0.81634,R,ugm-3,5.91021,R,ugm-3,7.16191,R,ugm-3
03-01-2020,03:00,11.594,R,ugm-3 (Ref.eq),0.85716,R,ugm-3,5.52626,R,ugm-3,6.84055,R,ugm-3
03-01-2020,04:00,12.561,R,ugm-3 (Ref.eq),0.64287,R,ugm-3,4.15617,R,ugm-3,5.14189,R,ugm-3
03-01-2020,05:00,6.763,R,ugm-3 (Ref.eq),0.73470,R,ugm-3,4.33672,R,ugm-3,5.46325,R,ugm-3
03-01-2020,06:00,2.899,R,ugm-3 (Ref.eq),1.62247,R,ugm-3,7.97966,R,ugm-3,10.46741,R,ugm-3
03-01-2020,07:00,8.696,R,ugm-3 (Ref.eq),3.15310,R,ugm-3,16.05422,R,ugm-3,20.88891,R,ugm-3
03-01-2020,08:00,7.730,R,ugm-3 (Ref.eq),17.05124,R,ugm-3,38.35826,R,ugm-3,64.50313,R,ugm-3
03-01-2020,09:00,22.223,R,ugm-3 (Ref.eq),39.58214,R,ugm-3,62.25440,R,ugm-3,122.94617,R,ugm-3
03-01-2020,10:00,19.324,R,ugm-3 (Ref.eq),52.10271,R,ugm-3,69.13317,R,ugm-3,149.02288,R,ugm-3
03-01-2020,11:00,20.290,R,ugm-3 (Ref.eq),38.72499,R,ugm-3,59.80409,R,ugm-3,119.18158,R,ugm-3
03-01-2020,12:00,19.324,R,ugm-3 (Ref.eq),23.26561,R,ugm-3,52.19773,R,ugm-3,87.87116,R,ugm-3
03-01-2020,13:00,25.121,R,ugm-3 (Ref.eq),28.40853,R,ugm-3,54.04488,R,ugm-3,97.60402,R,ugm-3
03-01-2020,14:00,24.155,R,ugm-3 (Ref.eq),19.92883,R,ugm-3,47.58120,R,ugm-3,78.13831,R,ugm-3
03-01-2020,15:00,20.290,R,ugm-3 (Ref.eq),15.52061,R,ugm-3,41.02656,R,ugm-3,64.82449,R,ugm-3
03-01-2020,16:00,28.020,R,ugm-3 (Ref.eq),18.70432,R,ugm-3,52.53469,R,ugm-3,81.21426,R,ugm-3
03-01-2020,17:00,26.087,R,ugm-3 (Ref.eq),14.93897,R,ugm-3,57.25223,R,ugm-3,80.15833,R,ugm-3
03-01-2020,18:00,24.155,R,ugm-3 (Ref.eq),13.92875,R,ugm-3,59.62759,R,ugm-3,80.98471,R,ugm-3
03-01-2020,19:00,19.324,R,ugm-3 (Ref.eq),9.39808,R,ugm-3,48.34837,R,ugm-3,62.75856,R,ugm-3
03-01-2020,20:00,21.256,R,ugm-3 (Ref.eq),5.26538,R,ugm-3,39.94808,R,ugm-3,48.02154,R,ugm-3
03-01-2020,21:00,22.223,R,ugm-3 (Ref.eq),3.85719,R,ugm-3,36.13900,R,ugm-3,42.05328,R,ugm-3
03-01-2020,22:00,22.223,R,ugm-3 (Ref.eq),3.27555,R,ugm-3,30.87894,R,ugm-3,35.90138,R,ugm-3
03-01-2020,23:00,21.256,R,ugm-3 (Ref.eq),7.77561,R,ugm-3,34.67591,R,ugm-3,46.59834,R,ugm-3
03-01-2020,24:00,19.324,R,ugm-3 (Ref.eq),3.12249,R,ugm-3,24.91582,R,ugm-3,29.70358,R,ugm-3
04-01-2020,01:00,11.594,R,ugm-3 (Ref.eq),2.12311,R,ugm-3,17.55828,R,ugm-3,20.81368,R,ugm-3
04-01-2020,02:00,12.561,R,ugm-3 (Ref.eq),1.18404,R,ugm-3,17.10045,R,ugm-3,18.91596,R,ugm-3
04-01-2020,03:00,24.155,R,ugm-3 (Ref.eq),1.59233,R,ugm-3,19.32099,R,ugm-3,21.76254,R,ugm-3
04-01-2020,04:00,15.459,R,ugm-3 (Ref.eq),1.01052,R,ugm-3,11.58154,R,ugm-3,13.13098,R,ugm-3
04-01-2020,05:00,16.425,R,ugm-3 (Ref.eq),1.04114,R,ugm-3,13.96795,R,ugm-3,15.56435,R,ugm-3
04-01-2020,06:00,17.392,R,ugm-3 (Ref.eq),1.56171,R,ugm-3,18.44969,R,ugm-3,20.84429,R,ugm-3
04-01-2020,07:00,14.493,R,ugm-3 (Ref.eq),5.91001,R,ugm-3,28.21908,R,ugm-3,37.28097,R,ugm-3
04-01-2020,08:00,12.561,R,ugm-3 (Ref.eq),3.24591,R,ugm-3,20.82584,R,ugm-3,25.80284,R,ugm-3
04-01-2020,09:00,11.594,R,ugm-3 (Ref.eq),3.52151,R,ugm-3,21.64291,R,ugm-3,27.04248,R,ugm-3
04-01-2020,10:00,10.628,R,ugm-3 (Ref.eq),5.45069,R,ugm-3,31.95360,R,ugm-3,40.31120,R,ugm-3
04-01-2020,11:00,11.594,R,ugm-3 (Ref.eq),6.36934,R,ugm-3,34.90671,R,ugm-3,44.67289,R,ugm-3
04-01-2020,12:00,10.628,R,ugm-3 (Ref.eq),9.58463,R,ugm-3,39.89377,R,ugm-3,54.59000,R,ugm-3
04-01-2020,13:00,13.527,R,ugm-3 (Ref.eq),7.34924,R,ugm-3,35.60802,R,ugm-3,46.87669,R,ugm-3
04-01-2020,14:00,12.561,R,ugm-3 (Ref.eq),6.24685,R,ugm-3,35.14043,R,ugm-3,44.71880,R,ugm-3
04-01-2020,15:00,16.425,R,ugm-3 (Ref.eq),7.74732,R,ugm-3,43.03232,R,ugm-3,54.91138,R,ugm-3
04-01-2020,16:00,14.493,R,ugm-3 (Ref.eq),5.20571,R,ugm-3,33.84434,R,ugm-3,41.82631,R,ugm-3
04-01-2020,17:00,10.628,R,ugm-3 (Ref.eq),4.86887,R,ugm-3,36.15141,R,ugm-3,43.61690,R,ugm-3
04-01-2020,18:00,13.527,R,ugm-3 (Ref.eq),3.58275,R,ugm-3,32.88939,R,ugm-3,38.38287,R,ugm-3
04-01-2020,19:00,14.493,R,ugm-3 (Ref.eq),4.10332,R,ugm-3,30.71382,R,ugm-3,37.00550,R,ugm-3
04-01-2020,20:00,14.493,R,ugm-3 (Ref.eq),4.47079,R,ugm-3,31.89507,R,ugm-3,38.75017,R,ugm-3
04-01-2020,21:00,6.763,R,ugm-3 (Ref.eq),2.41912,R,ugm-3,24.38920,R,ugm-3,28.09847,R,ugm-3
04-01-2020,22:00,8.696,R,ugm-3 (Ref.eq),2.44975,R,ugm-3,19.70508,R,ugm-3,23.46130,R,ugm-3
04-01-2020,23:00,8.696,R,ugm-3 (Ref.eq),2.08228,R,ugm-3,19.94712,R,ugm-3,23.13991,R,ugm-3
04-01-2020,24:00,9.662,R,ugm-3 (Ref.eq),1.28612,R,ugm-3,15.88796,R,ugm-3,17.85997,R,ugm-3
05-01-2020,01:00,6.763,R,ugm-3 (Ref.eq),1.02103,R,ugm-3,11.84172,R,ugm-3,13.40729,R,ugm-3
05-01-2020,02:00,3.865,R,ugm-3 (Ref.eq),0.36757,R,ugm-3,9.84388,R,ugm-3,10.40748,R,ugm-3
05-01-2020,03:00,4.831,R,ugm-3 (Ref.eq),0.55136,R,ugm-3,8.88865,R,ugm-3,9.73406,R,ugm-3
05-01-2020,04:00,5.797,R,ugm-3 (Ref.eq),0.76578,R,ugm-3,6.76919,R,ugm-3,7.94336,R,ugm-3
05-01-2020,05:00,4.831,R,ugm-3 (Ref.eq),0.67388,R,ugm-3,5.44080,R,ugm-3,6.47407,R,ugm-3
05-01-2020,06:00,6.763,R,ugm-3 (Ref.eq),0.49010,R,ugm-3,6.82456,R,ugm-3,7.57603,R,ugm-3
05-01-2020,07:00,7.730,R,ugm-3 (Ref.eq),0.82704,R,ugm-3,7.73130,R,ugm-3,8.99941,R,ugm-3
05-01-2020,08:00,9.662,R,ugm-3 (Ref.eq),0.52073,R,ugm-3,8.38464,R,ugm-3,9.18307,R,ugm-3
05-01-2020,09:00,6.763,R,ugm-3 (Ref.eq),1.13335,R,ugm-3,11.57768,R,ugm-3,13.31545,R,ugm-3
05-01-2020,10:00,5.797,R,ugm-3 (Ref.eq),1.53155,R,ugm-3,11.42626,R,ugm-3,13.77461,R,ugm-3
05-01-2020,11:00,9.662,R,ugm-3 (Ref.eq),1.92975,R,ugm-3,14.76441,R,ugm-3,17.72333,R,ugm-3
05-01-2020,12:00,9.662,R,ugm-3 (Ref.eq),2.97121,R,ugm-3,16.61119,R,ugm-3,21.16698,R,ugm-3
05-01-2020,13:00,6.763,R,ugm-3 (Ref.eq),2.75679,R,ugm-3,15.37884,R,ugm-3,19.60586,R,ugm-3
05-01-2020,14:00,5.797,R,ugm-3 (Ref.eq),4.59465,R,ugm-3,20.77967,R,ugm-3,27.82471,R,ugm-3
05-01-2020,15:00,7.730,R,ugm-3 (Ref.eq),3.73698,R,ugm-3,22.82939,R,ugm-3,28.55935,R,ugm-3
05-01-2020,16:00,11.594,R,ugm-3 (Ref.eq),2.72616,R,ugm-3,21.67029,R,ugm-3,25.85035,R,ugm-3
05-01-2020,17:00,11.594,R,ugm-3 (Ref.eq),2.20543,R,ugm-3,22.97380,R,ugm-3,26.35542,R,ugm-3
05-01-2020,18:00,17.392,R,ugm-3 (Ref.eq),3.24689,R,ugm-3,28.67747,R,ugm-3,33.65596,R,ugm-3
05-01-2020,19:00,12.561,R,ugm-3 (Ref.eq),1.89912,R,ugm-3,20.91812,R,ugm-3,23.83007,R,ugm-3
05-01-2020,20:00,16.425,R,ugm-3 (Ref.eq),4.44150,R,ugm-3,23.21845,R,ugm-3,30.02864,R,ugm-3
05-01-2020,21:00,11.594,R,ugm-3 (Ref.eq),3.52257,R,ugm-3,21.22972,R,ugm-3,26.63091,R,ugm-3
05-01-2020,22:00,15.459,R,ugm-3 (Ref.eq),2.20543,R,ugm-3,15.35185,R,ugm-3,18.73347,R,ugm-3
05-01-2020,23:00,12.561,R,ugm-3 (Ref.eq),1.65407,R,ugm-3,11.19248,R,ugm-3,13.72869,R,ugm-3
05-01-2020,24:00,13.527,R,ugm-3 (Ref.eq),0.98019,R,ugm-3,8.32295,R,ugm-3,9.82589,R,ugm-3
06-01-2020,01:00,12.561,R,ugm-3 (Ref.eq),0.73536,R,ugm-3,7.32140,R,ugm-3,8.44895,R,ugm-3
06-01-2020,02:00,10.628,R,ugm-3 (Ref.eq),0.69451,R,ugm-3,6.09834,R,ugm-3,7.16324,R,ugm-3
06-01-2020,03:00,10.628,R,ugm-3 (Ref.eq),1.22561,R,ugm-3,10.70234,R,ugm-3,12.58158,R,ugm-3
06-01-2020,04:00,11.594,R,ugm-3 (Ref.eq),0.64344,R,ugm-3,10.30927,R,ugm-3,11.29587,R,ugm-3
06-01-2020,05:00,12.561,R,ugm-3 (Ref.eq),0.82729,R,ugm-3,6.07842,R,ugm-3,7.34691,R,ugm-3
06-01-2020,06:00,12.561,R,ugm-3 (Ref.eq),1.53201,R,ugm-3,6.46724,R,ugm-3,8.81629,R,ugm-3
06-01-2020,07:00,13.527,R,ugm-3 (Ref.eq),5.66844,R,ugm-3,15.27782,R,ugm-3,23.96929,R,ugm-3
06-01-2020,08:00,21.256,R,ugm-3 (Ref.eq),7.29236,R,ugm-3,28.53776,R,ugm-3,39.71923,R,ugm-3
06-01-2020,09:00,18.358,R,ugm-3 (Ref.eq),10.08062,R,ugm-3,27.15534,R,ugm-3,42.61208,R,ugm-3
06-01-2020,10:00,19.324,R,ugm-3 (Ref.eq),5.20883,R,ugm-3,33.11002,R,ugm-3,41.09678,R,ugm-3
06-01-2020,11:00,18.358,R,ugm-3 (Ref.eq),7.13916,R,ugm-3,28.68083,R,ugm-3,39.62740,R,ugm-3
06-01-2020,12:00,21.256,R,ugm-3 (Ref.eq),9.31462,R,ugm-3,26.53906,R,ugm-3,40.82127,R,ugm-3
06-01-2020,13:00,19.324,R,ugm-3 (Ref.eq),5.42331,R,ugm-3,21.99037,R,ugm-3,30.30600,R,ugm-3
06-01-2020,14:00,16.425,R,ugm-3 (Ref.eq),11.21431,R,ugm-3,24.68236,R,ugm-3,41.87739,R,ugm-3
06-01-2020,15:00,17.392,R,ugm-3 (Ref.eq),6.31188,R,ugm-3,22.92384,R,ugm-3,32.60191,R,ugm-3
06-01-2020,16:00,11.594,R,ugm-3 (Ref.eq),5.05563,R,ugm-3,22.41639,R,ugm-3,30.16825,R,ugm-3
06-01-2020,17:00,25.121,R,ugm-3 (Ref.eq),7.90517,R,ugm-3,32.14404,R,ugm-3,44.26513,R,ugm-3
06-01-2020,18:00,34.783,R,ugm-3 (Ref.eq),7.35364,R,ugm-3,32.85195,R,ugm-3,44.12738,R,ugm-3
06-01-2020,19:00,39.614,R,ugm-3 (Ref.eq),6.61828,R,ugm-3,32.55603,R,ugm-3,42.70391,R,ugm-3
06-01-2020,20:00,38.648,R,ugm-3 (Ref.eq),3.52362,R,ugm-3,18.65832,R,ugm-3,24.06113,R,ugm-3
06-01-2020,21:00,40.580,R,ugm-3 (Ref.eq),3.95258,R,ugm-3,20.34241,R,ugm-3,26.40296,R,ugm-3
06-01-2020,22:00,39.614,R,ugm-3 (Ref.eq),3.61554,R,ugm-3,18.37962,R,ugm-3,23.92338,R,ugm-3
06-01-2020,23:00,43.479,R,ugm-3 (Ref.eq),1.53201,R,ugm-3,19.18658,R,ugm-3,21.53563,R,ugm-3
06-01-2020,24:00,30.918,R,ugm-3 (Ref.eq),2.32865,R,ugm-3,22.78649,R,ugm-3,26.35704,R,ugm-3
07-01-2020,01:00,29.952,R,ugm-3 (Ref.eq),1.43030,R,ugm-3,8.64426,R,ugm-3,10.83736,R,ugm-3
07-01-2020,02:00,27.054,R,ugm-3 (Ref.eq),1.38944,R,ugm-3,13.17657,R,ugm-3,15.30701,R,ugm-3
07-01-2020,03:00,26.087,R,ugm-3 (Ref.eq),0.64364,R,ugm-3,9.80454,R,ugm-3,10.79144,R,ugm-3
07-01-2020,04:00,25.121,R,ugm-3 (Ref.eq),0.79688,R,ugm-3,6.72246,R,ugm-3,7.94434,R,ugm-3
07-01-2020,05:00,24.155,R,ugm-3 (Ref.eq),2.48260,R,ugm-3,10.19931,R,ugm-3,14.00591,R,ugm-3
07-01-2020,06:00,19.324,R,ugm-3 (Ref.eq),3.83117,R,ugm-3,19.24442,R,ugm-3,25.11880,R,ugm-3
07-01-2020,07:00,28.020,R,ugm-3 (Ref.eq),16.55066,R,ugm-3,39.46315,R,ugm-3,64.84048,R,ugm-3
07-01-2020,08:00,30.918,R,ugm-3 (Ref.eq),44.87067,R,ugm-3,56.79324,R,ugm-3,125.59398,R,ugm-3
07-01-2020,09:00,28.020,R,ugm-3 (Ref.eq),17.83793,R,ugm-3,50.07172,R,ugm-3,77.42284,R,ugm-3
07-01-2020,10:00,25.121,R,ugm-3 (Ref.eq),18.94131,R,ugm-3,44.47661,R,ugm-3,73.51955,R,ugm-3
07-01-2020,11:00,31.885,R,ugm-3 (Ref.eq),8.79637,R,ugm-3,35.73975,R,ugm-3,49.22733,R,ugm-3
07-01-2020,12:00,30.918,R,ugm-3 (Ref.eq),11.52416,R,ugm-3,28.11312,R,ugm-3,45.78325,R,ugm-3
07-01-2020,13:00,,,,8.09143,R,ugm-3,26.22819,R,ugm-3,38.63488,R,ugm-3
07-01-2020,14:00,5.797,R,ugm-3 (Ref.eq),15.07949,R,ugm-3,34.00419,R,ugm-3,57.12574,R,ugm-3
07-01-2020,15:00,11.594,R,ugm-3 (Ref.eq),10.88053,R,ugm-3,26.16107,R,ugm-3,42.84431,R,ugm-3
07-01-2020,16:00,10.628,R,ugm-3 (Ref.eq),6.71221,R,ugm-3,23.68964,R,ugm-3,33.98155,R,ugm-3
07-01-2020,17:00,11.594,R,ugm-3 (Ref.eq),5.88468,R,ugm-3,29.36692,R,ugm-3,38.38997,R,ugm-3
07-01-2020,18:00,5.797,R,ugm-3 (Ref.eq),4.75065,R,ugm-3,24.40127,R,ugm-3,31.68550,R,ugm-3
07-01-2020,19:00,5.797,R,ugm-3 (Ref.eq),4.50546,R,ugm-3,23.62921,R,ugm-3,30.53748,R,ugm-3
07-01-2020,20:00,8.696,R,ugm-3 (Ref.eq),3.67792,R,ugm-3,19.75492,R,ugm-3,25.39432,R,ugm-3
07-01-2020,21:00,9.662,R,ugm-3 (Ref.eq),5.17974,R,ugm-3,26.03939,R,ugm-3,33.98155,R,ugm-3
07-01-2020,22:00,6.763,R,ugm-3 (Ref.eq),2.32935,R,ugm-3,15.11823,R,ugm-3,18.68986,R,ugm-3
07-01-2020,23:00,1.932,R,ugm-3 (Ref.eq),2.42130,R,ugm-3,12.31383,R,ugm-3,16.02643,R,ugm-3
07-01-2020,24:00,1.932,R,ugm-3 (Ref.eq),0.88883,R,ugm-3,7.82135,R,ugm-3,9.18420,R,ugm-3
08-01-2020,01:00,2.899,R,ugm-3 (Ref.eq),0.85818,R,ugm-3,5.78659,R,ugm-3,7.10245,R,ugm-3
08-01-2020,02:00,6.763,R,ugm-3 (Ref.eq),0.82753,R,ugm-3,2.86403,R,ugm-3,4.13289,R,ugm-3
08-01-2020,03:00,26.087,R,ugm-3 (Ref.eq),0.45974,R,ugm-3,2.23402,R,ugm-3,2.93894,R,ugm-3
08-01-2020,04:00,33.817,R,ugm-3 (Ref.eq),0.49039,R,ugm-3,2.87584,R,ugm-3,3.62776,R,ugm-3
08-01-2020,05:00,39.614,R,ugm-3 (Ref.eq),0.67429,R,ugm-3,3.92558,R,ugm-3,4.95947,R,ugm-3
08-01-2020,06:00,44.445,R,ugm-3 (Ref.eq),3.76987,R,ugm-3,14.33302,R,ugm-3,20.11341,R,ugm-3
08-01-2020,07:00,42.513,R,ugm-3 (Ref.eq),2.94234,R,ugm-3,15.83149,R,ugm-3,20.34301,R,ugm-3
08-01-2020,08:00,45.411,R,ugm-3 (Ref.eq),5.84381,R,ugm-3,26.18450,R,ugm-3,35.14488,R,ugm-3
08-01-2020,09:00,,,,,,,,,,,,
08-01-2020,10:00,,,,,,,,,,,,
08-01-2020,11:00,,,,8.33663,R,ugm-3,31.11784,R,ugm-3,43.90049,R,ugm-3
08-01-2020,12:00,,,,11.27897,R,ugm-3,31.51987,R,ugm-3,48.81404,R,ugm-3
08-01-2020,13:00,,,,9.10286,R,ugm-3,33.11152,R,ugm-3,47.06904,R,ugm-3
08-01-2020,14:00,,,,7.90754,R,ugm-3,34.34735,R,ugm-3,46.47207,R,ugm-3
08-01-2020,15:00,,,,9.62390,R,ugm-3,44.34391,R,ugm-3,59.10035,R,ugm-3
08-01-2020,16:00,,,,9.04156,R,ugm-3,47.07365,R,ugm-3,60.93719,R,ugm-3
08-01-2020,17:00,,,,12.75014,R,ugm-3,60.62816,R,ugm-3,80.17810,R,ugm-3
08-01-2020,18:00,,,,35.55326,R,ugm-3,77.09539,R,ugm-3,131.60963,R,ugm-3
08-01-2020,19:00,,,,24.55014,R,ugm-3,62.60255,R,ugm-3,100.24558,R,ugm-3
08-01-2020,20:00,,,,1.83896,R,ugm-3,36.99382,R,ugm-3,39.81352,R,ugm-3
08-01-2020,21:00,,,,20.74962,R,ugm-3,47.85732,R,ugm-3,79.67296,R,ugm-3
08-01-2020,22:00,,,,1.47117,R,ugm-3,26.62856,R,ugm-3,28.88432,R,ugm-3
08-01-2020,23:00,,,,1.19533,R,ugm-3,15.02021,R,ugm-3,16.85301,R,ugm-3
08-01-2020,24:00,,,,1.10338,R,ugm-3,11.80896,R,ugm-3,13.50078,R,ugm-3
09-01-2020,01:00,,,,0.57212,R,ugm-3,5.12311,R,ugm-3,6.00035,R,ugm-3
09-01-2020,02:00,,,,0.44952,R,ugm-3,2.73951,R,ugm-3,3.42877,R,ugm-3
09-01-2020,03:00,,,,0.49039,R,ugm-3,2.64623,R,ugm-3,3.39816,R,ugm-3
09-01-2020,04:00,,,,0.70494,R,ugm-3,2.96016,R,ugm-3,4.04105,R,ugm-3
09-01-2020,05:00,,,,1.16468,R,ugm-3,2.98997,R,ugm-3,4.77579,R,ugm-3
09-01-2020,06:00,,,,0.76623,R,ugm-3,3.23354,R,ugm-3,4.40842,R,ugm-3
09-01-2020,07:00,,,,3.86182,R,ugm-3,13.96243,R,ugm-3,19.88380,R,ugm-3
09-01-2020,08:00,,,,6.71221,R,ugm-3,28.09806,R,ugm-3,38.38997,R,ugm-3
09-01-2020,09:00,,,,10.63533,R,ugm-3,32.73637,R,ugm-3,49.04365,R,ugm-3
09-01-2020,10:00,,,,10.39014,R,ugm-3,31.68878,R,ugm-3,47.62010,R,ugm-3
09-01-2020,11:00,,,,7.44780,R,ugm-3,26.05176,R,ugm-3,37.47155,R,ugm-3
09-01-2020,12:00,,,,9.28676,R,ugm-3,31.22231,R,ugm-3,45.46181,R,ugm-3
09-01-2020,13:00,,,,54.77042,R,ugm-3,61.54357,R,ugm-3,145.52370,R,ugm-3
09-01-2020,14:00,,,,26.11326,R,ugm-3,55.15450,R,ugm-3,95.19427,R,ugm-3
09-01-2020,15:00,,,,143.10189,R,ugm-3,109.97162,R,ugm-3,329.39145,R,ugm-3
09-01-2020,16:00,,,,137.24786,R,ugm-3,102.37018,R,ugm-3,312.81396,R,ugm-3
09-01-2020,17:00,,,,90.35433,R,ugm-3,95.24252,R,ugm-3,233.78390,R,ugm-3
09-01-2020,18:00,,,,32.02859,R,ugm-3,71.20325,R,ugm-3,120.31306,R,ugm-3
09-01-2020,19:00,,,,27.43118,R,ugm-3,60.61883,R,ugm-3,102.67939,R,ugm-3
09-01-2020,20:00,,,,22.83378,R,ugm-3,55.91231,R,ugm-3,90.92361,R,ugm-3
09-01-2020,21:00,,,,38.58755,R,ugm-3,57.42671,R,ugm-3,116.59346,R,ugm-3
09-01-2020,22:00,,,,34.14339,R,ugm-3,47.43390,R,ugm-3,99.78637,R,ugm-3
09-01-2020,23:00,,,,20.28988,R,ugm-3,35.97989,R,ugm-3,67.09061,R,ugm-3
09-01-2020,24:00,,,,8.33663,R,ugm-3,27.30640,R,ugm-3,40.08905,R,ugm-3
10-01-2020,01:00,,,,2.53368,R,ugm-3,15.76927,R,ugm-3,19.65419,R,ugm-3
10-01-2020,02:00,,,,2.32935,R,ugm-3,9.88324,R,ugm-3,13.45486,R,ugm-3
10-01-2020,03:00,,,,3.27948,R,ugm-3,13.20218,R,ugm-3,18.23064,R,ugm-3
10-01-2020,04:00,,,,2.97299,R,ugm-3,17.52949,R,ugm-3,22.08801,R,ugm-3
10-01-2020,05:00,,,,2.02286,R,ugm-3,19.03226,R,ugm-3,22.13393,R,ugm-3
10-01-2020,06:00,,,,4.99585,R,ugm-3,23.97939,R,ugm-3,31.63958,R,ugm-3
10-01-2020,07:00,,,,17.83793,R,ugm-3,49.01554,R,ugm-3,76.36665,R,ugm-3
10-01-2020,08:00,,,,23.38547,R,ugm-3,61.35758,R,ugm-3,97.21479,R,ugm-3
10-01-2020,09:00,,,,19.03326,R,ugm-3,54.94338,R,ugm-3,84.12730,R,ugm-3
10-01-2020,10:00,,,,23.75326,R,ugm-3,60.79364,R,ugm-3,97.21479,R,ugm-3
10-01-2020,11:00,,,,12.71949,R,ugm-3,48.36832,R,ugm-3,67.87126,R,ugm-3
10-01-2020,12:00,,,,14.37455,R,ugm-3,41.69770,R,ugm-3,63.73837,R,ugm-3
10-01-2020,13:00,,,,20.13663,R,ugm-3,45.76644,R,ugm-3,76.64218,R,ugm-3
10-01-2020,14:00,,,,22.71118,R,ugm-3,50.91122,R,ugm-3,85.73454,R,ugm-3
10-01-2020,15:00,,,,12.53559,R,ugm-3,37.49149,R,ugm-3,56.71246,R,ugm-3
10-01-2020,16:00,,,,11.46286,R,ugm-3,40.51394,R,ugm-3,58.09009,R,ugm-3
10-01-2020,17:00,,,,10.23689,R,ugm-3,59.47636,R,ugm-3,75.17270,R,ugm-3
10-01-2020,18:00,,,,8.94961,R,ugm-3,57.73055,R,ugm-3,71.45310,R,ugm-3
10-01-2020,19:00,,,,9.53195,R,ugm-3,57.15909,R,ugm-3,71.77455,R,ugm-3
10-01-2020,20:00,,,,9.68520,R,ugm-3,46.82149,R,ugm-3,61.67193,R,ugm-3
10-01-2020,21:00,,,,6.34442,R,ugm-3,27.42213,R,ugm-3,37.15010,R,ugm-3
10-01-2020,22:00,,,,2.05351,R,ugm-3,15.90855,R,ugm-3,19.05722,R,ugm-3
10-01-2020,23:00,,,,1.83896,R,ugm-3,11.23213,R,ugm-3,14.05183,R,ugm-3
10-01-2020,24:00,,,,2.54390,R,ugm-3,10.97782,R,ugm-3,14.87841,R,ugm-3
11-01-2020,01:00,,,,1.92069,R,ugm-3,7.09637,R,ugm-3,10.04140,R,ugm-3
11-01-2020,02:00,,,,0.65385,R,ugm-3,3.77323,R,ugm-3,4.77579,R,ugm-3
11-01-2020,03:00,,,,0.64364,R,ugm-3,3.92665,R,ugm-3,4.91355,R,ugm-3
11-01-2020,04:00,,,,0.45974,R,ugm-3,2.69323,R,ugm-3,3.39816,R,ugm-3
11-01-2020,05:00,,,,0.39844,R,ugm-3,3.06275,R,ugm-3,3.67368,R,ugm-3
11-01-2020,06:00,,,,1.19533,R,ugm-3,4.91758,R,ugm-3,6.75039,R,ugm-3
11-01-2020,07:00,,,,1.25662,R,ugm-3,6.24715,R,ugm-3,8.17394,R,ugm-3
11-01-2020,08:00,,,,2.63585,R,ugm-3,11.25012,R,ugm-3,15.29170,R,ugm-3
11-01-2020,09:00,,,,3.34078,R,ugm-3,11.17950,R,ugm-3,16.30196,R,ugm-3
11-01-2020,10:00,,,,2.78909,R,ugm-3,11.97949,R,ugm-3,16.25604,R,ugm-3
11-01-2020,11:00,,,,2.69714,R,ugm-3,12.07456,R,ugm-3,16.21012,R,ugm-3
11-01-2020,12:00,,,,3.24883,R,ugm-3,10.90720,R,ugm-3,15.88867,R,ugm-3
11-01-2020,13:00,,,,2.72779,R,ugm-3,11.84388,R,ugm-3,16.02643,R,ugm-3
11-01-2020,14:00,,,,2.66650,R,ugm-3,12.71853,R,ugm-3,16.80709,R,ugm-3
11-01-2020,15:00,,,,2.60520,R,ugm-3,12.72067,R,ugm-3,16.71525,R,ugm-3
11-01-2020,16:00,,,,3.52468,R,ugm-3,15.03042,R,ugm-3,20.43485,R,ugm-3
11-01-2020,17:00,,,,2.23740,R,ugm-3,11.63146,R,ugm-3,15.06209,R,ugm-3
11-01-2020,18:00,,,,3.21818,R,ugm-3,13.93906,R,ugm-3,18.87354,R,ugm-3
11-01-2020,19:00,,,,3.34078,R,ugm-3,14.76134,R,ugm-3,19.88380,R,ugm-3
11-01-2020,20:00,,,,3.70857,R,ugm-3,13.04938,R,ugm-3,18.73578,R,ugm-3
11-01-2020,21:00,,,,2.05351,R,ugm-3,8.56119,R,ugm-3,11.70986,R,ugm-3
11-01-2020,22:00,,,,2.48260,R,ugm-3,6.34195,R,ugm-3,10.14855,R,ugm-3
11-01-2020,23:00,,,,1.59377,R,ugm-3,6.60270,R,ugm-3,9.04644,R,ugm-3
11-01-2020,24:00,,,,1.19533,R,ugm-3,5.69824,R,ugm-3,7.53105,R,ugm-3
12-01-2020,01:00,,,,1.22598,R,ugm-3,4.54914,R,ugm-3,6.42894,R,ugm-3
12-01-2020,02:00,,,,0.49039,R,ugm-3,2.98299,R,ugm-3,3.73491,R,ugm-3
12-01-2020,03:00,,,,0.64364,R,ugm-3,3.14600,R,ugm-3,4.13289,R,ugm-3
12-01-2020,04:00,,,,0.55169,R,ugm-3,3.10330,R,ugm-3,3.94921,R,ugm-3
12-01-2020,05:00,,,,0.76623,R,ugm-3,4.61117,R,ugm-3,5.78605,R,ugm-3
12-01-2020,06:00,,,,0.61299,R,ugm-3,3.33076,R,ugm-3,4.27066,R,ugm-3
12-01-2020,07:00,,,,0.91948,R,ugm-3,3.50370,R,ugm-3,4.91355,R,ugm-3
12-01-2020,08:00,,,,1.07273,R,ugm-3,5.88622,R,ugm-3,7.53105,R,ugm-3
12-01-2020,09:00,,,,1.10338,R,ugm-3,10.15580,R,ugm-3,11.84762,R,ugm-3
12-01-2020,10:00,,,,2.29870,R,ugm-3,10.84865,R,ugm-3,14.37328,R,ugm-3
12-01-2020,11:00,,,,2.81974,R,ugm-3,12.29987,R,ugm-3,16.62341,R,ugm-3
12-01-2020,12:00,,,,3.80052,R,ugm-3,11.39300,R,ugm-3,17.22038,R,ugm-3
12-01-2020,13:00,,,,4.84260,R,ugm-3,15.62714,R,ugm-3,23.05235,R,ugm-3
12-01-2020,14:00,,,,4.81195,R,ugm-3,18.65900,R,ugm-3,26.03722,R,ugm-3
12-01-2020,15:00,,,,4.93455,R,ugm-3,19.38944,R,ugm-3,26.95564,R,ugm-3
12-01-2020,16:00,,,,4.35221,R,ugm-3,23.03760,R,ugm-3,29.71090,R,ugm-3
12-01-2020,17:00,,,,4.16831,R,ugm-3,25.84523,R,ugm-3,32.23655,R,ugm-3
12-01-2020,18:00,,,,4.84260,R,ugm-3,35.74054,R,ugm-3,43.16576,R,ugm-3
12-01-2020,19:00,,,,7.38650,R,ugm-3,31.15114,R,ugm-3,42.47694,R,ugm-3
12-01-2020,20:00,,,,4.53611,R,ugm-3,28.95497,R,ugm-3,35.91023,R,ugm-3
12-01-2020,21:00,,,,3.12624,R,ugm-3,20.46307,R,ugm-3,25.25656,R,ugm-3
12-01-2020,22:00,,,,3.24883,R,ugm-3,17.51982,R,ugm-3,22.50130,R,ugm-3
12-01-2020,23:00,,,,1.68572,R,ugm-3,18.49302,R,ugm-3,21.07775,R,ugm-3